TimePDT,TemperatureF,Dew PointF,Humidity,Sea Level PressureIn,VisibilityMPH,Wind Direction,Wind SpeedMPH,Gust SpeedMPH,PrecipitationIn,Events,Conditions,WindDirDegrees,DateUTC
12:53 AM,81.0,62.1,52,29.85,10.0,Calm,Calm,-,N/A,,Clear,0,2013-09-04 07:53:00
1:53 AM,81.0,62.1,52,29.85,10.0,East,3.5,-,N/A,,Clear,80,2013-09-04 08:53:00
2:53 AM,80.1,62.1,54,29.84,10.0,Calm,Calm,-,N/A,,Clear,0,2013-09-04 09:53:00
3:53 AM,79.0,57.9,48,29.83,10.0,Calm,Calm,-,N/A,,Clear,0,2013-09-04 10:53:00
4:53 AM,79.0,57.0,47,29.84,10.0,Calm,Calm,-,N/A,,Clear,0,2013-09-04 11:53:00
5:53 AM,79.0,57.0,47,29.85,10.0,Calm,Calm,-,N/A,,Clear,0,2013-09-04 12:53:00
6:53 AM,77.0,57.9,52,29.86,10.0,Calm,Calm,-,N/A,,Clear,0,2013-09-04 13:53:00
7:53 AM,80.1,60.1,50,29.88,10.0,Calm,Calm,-,N/A,,Clear,0,2013-09-04 14:53:00
8:53 AM,84.9,59.0,41,29.88,10.0,Calm,Calm,-,N/A,,Clear,0,2013-09-04 15:53:00
9:53 AM,89.1,59.0,36,29.88,10.0,Calm,Calm,-,N/A,,Clear,0,2013-09-04 16:53:00
10:53 AM,93.9,57.9,30,29.86,10.0,Calm,Calm,-,N/A,,Clear,0,2013-09-04 17:53:00
11:53 AM,98.1,55.9,24,29.85,10.0,Calm,Calm,-,N/A,,Clear,0,2013-09-04 18:53:00
12:53 PM,100.0,57.0,24,29.83,10.0,South,6.9,-,N/A,,Clear,180,2013-09-04 19:53:00
1:53 PM,100.9,53.1,20,29.81,10.0,SW,8.1,-,N/A,,Clear,220,2013-09-04 20:53:00
2:53 PM,102.0,54.0,20,29.80,10.0,SSE,11.5,-,N/A,,Clear,150,2013-09-04 21:53:00
3:53 PM,99.0,54.0,22,29.79,10.0,South,11.5,-,N/A,,Clear,170,2013-09-04 22:53:00
4:53 PM,98.1,50.0,20,29.79,10.0,SSE,6.9,-,N/A,,Clear,150,2013-09-04 23:53:00
5:53 PM,98.1,52.0,21,29.80,10.0,ESE,9.2,-,N/A,,Clear,120,2013-09-05 00:53:00
6:53 PM,91.9,53.1,27,29.81,10.0,SSE,8.1,-,N/A,,Clear,150,2013-09-05 01:53:00
7:53 PM,91.0,55.0,29,29.82,10.0,SE,4.6,-,N/A,,Clear,140,2013-09-05 02:53:00
8:53 PM,89.1,55.9,32,29.83,10.0,Calm,Calm,-,N/A,,Clear,0,2013-09-05 03:53:00
9:53 PM,89.1,55.0,31,29.84,10.0,WNW,3.5,-,N/A,,Clear,300,2013-09-05 04:53:00
10:53 PM,88.0,53.1,30,29.84,10.0,West,4.6,-,N/A,,Clear,280,2013-09-05 05:53:00
11:53 PM,86.0,53.1,32,29.83,10.0,Calm,Calm,-,N/A,,Clear,0,2013-09-05 06:53:00